Hourly Data Report for June 13, 2019

BORDEN AWOS
ONTARIO
Current Station Operator: DND

44°16'20.000" N
79°54'42.000" W
222.50 m
611B002
71534
YBN

Download Data

Hourly Data (June 2019)
Hourly Data Report for June 13, 2019
TIME
LST
Temp Definition
°C
Dew Point Definition
°C
Rel Hum Definition
%
Precip. Amount Definition
mm

Wind Dir Definition
10's deg

Wind Spd Definition
km/h
Visibility Definition
km
Stn Press Definition
kPa
Hmdx Definition


Wind Chill Definition


Weather Definition


00:00 11.4 8.7 84     0 14.5 98.36     LegendNANA
01:00 12.0 9.5 85     0 14.5 98.29     LegendNANA
02:00 11.6 9.9 89     0 14.5 98.21     LegendNANA
03:00 12.7 10.6 87   18 7 14.5 98.13     Rain
04:00 12.7 11.8 94   17 11 4.0 98.09     Moderate Rain
05:00 13.0 12.7 98   13 9 8.0 98.02     Rain
06:00 13.2 13.0 99   13 11 6.4 97.95     Moderate Rain
07:00 13.9 13.6 98   14 13 12.9 97.91     Rain
08:00 14.3 14.0 98   14 15 14.5 97.86     LegendNANA
09:00 14.9 13.9 94   15 19 14.5 97.82     LegendNANA
10:00 14.9 13.5 91   14 28 14.5 97.73     LegendNANA
11:00 14.9 13.4 91   15 15 14.5 97.70     LegendNANA
12:00 15.6 13.7 89   16 15 14.5 97.66     Rain
13:00 15.0 14.1 94   15 22 14.5 97.59     LegendNANA
14:00 15.8 14.5 92   17 17 14.5 97.56     LegendNANA
15:00 16.2 15.2 94   15 17 12.9 97.51     Rain
16:00 16.3 14.6 90   16 13 14.5 97.43     LegendNANA
17:00 16.0 14.4 90   18 11 14.5 97.51     LegendNANA
18:00 15.9 15.0 94   25 17 14.5 97.53     LegendNANA
19:00 13.3 11.7 90   22 7 14.5 97.55     LegendNANA
20:00 12.8 11.5 92   26 11 14.5 97.58     LegendNANA
21:00 12.3 10.9 91   28 13 14.5 97.64     LegendNANA
22:00 11.7 11.5 99   29 17 4.8 97.66     Drizzle
23:00 11.5 11.2 98   29 15 6.4 97.68     Drizzle

Notes on Data Quality.

Legend

  • E = Estimated
  • M = Missing
  • NA = Not Available*
  • [empty] = Indicates an unobserved value
Date modified: